Powrót do katalogu

YAOGAN-32 2A

AktywnyMilitariaSSO
NORAD 49383·PAYLOAD·🇨🇳 China

Wystrzelony Nov 3, 2021 z Jiuquan Satellite Launch Center

Loading…

Następne Przeloty (najbliższe 24 godziny)

TLE

ŚwieżeSource: Space-Track

Epoka: Sep 14, 2026, 14:52 UTC

1 49383U 21099A   26257.61996208  .00000530  00000-0  10966-3 0  9994
2 49383  98.2597  31.6104 0000471  26.0364 334.0862 14.64314062259459

Śledź YAOGAN-32 2A w czasie rzeczywistym z AllMySat

Download on the App Store